TJS-11

Last updated on Wed Sep 09 2026 00:03:04 GMT+0000 (Coordinated Universal Time)

1 59020U 24037A 26251.25348259 -.00000382 00000+0 00000+0 0 9998 2 59020 4.0964 328.1531 0002537 269.5112 313.4674 1.00269021 9410
UTC large
Height (km)
Speed (km/s)
/
Latitude / Longitude
Inclination (degrees)
Orbital Period (minutes)
Azimuth
Elevation
Range (km)
Doppler Factor

Next 0 passes for location: London (51.5072 / 0.1276)

No passes found over London.
TJS-11